Weather History for KHBR - October, 2012

Change the Weather History Date:

Wednesday, October 10, 2012

  Actual Average Record
Temperature  
Mean Temperature 57 °F -  
Max Temperature 64 °F 73 °F 84 °F (2008)
Min Temperature 50 °F 51 °F 33 °F (2000)
Degree Days  
Heating Degree Days 8    
Growing Degree Days 7 (Base 50)    
Moisture  
Dew Point 41 °F    
Average Humidity 56    
Maximum Humidity 71    
Minimum Humidity 40    
Precipitation  
Precipitation 0.00 in - - ()
Sea Level Pressure  
Sea Level Pressure 30.16 in    
Wind  
Wind Speed 16 mph (East)    
Max Wind Speed 22 mph    
Max Gust Speed 28 mph    
Visibility 10 miles    
Events      
Averages and records for this station are not official NWS values.
T = Trace of Precipitation, MM = Missing Value Source: NWS Daily Summary

Daily Weather History Graph

Daily Weather History Graph

Search for Another Location

Airport or City:

Trip Planner

Search our weather history database for the weather conditions in past years. The results will help you decide how hot, cold, wet, or windy it might be!

Date:

Astronomy

Oct. 10, 2012 Rise Set
Actual Time 7:38 AM CDT 7:07 PM CDT
Civil Twilight 7:13 AM CDT 7:32 PM CDT
Nautical Twilight 6:43 AM CDT 8:01 PM CDT
Astronomical Twilight 6:14 AM CDT 8:31 PM CDT
Moon 2:27 AM CDT (10/10) 4:00 PM CDT (10/10)
Length of Visible Light 12h 19m
Length of Day
11h 28m
Waning Crescent, 27% of the Moon is Illuminated
Oct 10
Waning Crescent
Oct 15
New
Oct 21
First Quarter
Oct 29
Full
Nov 6
Last Quarter

Hourly Weather History & Observations

Time (CDT) Temp. Dew Point Humidity Pressure Visibility Wind Dir Wind Speed Gust Speed Precip Events Conditions
12:53 AM 55.9 °F 43.0 °F 62% 30.08 in 10.0 mi NE 17.3 mph 26.5 mph N/A   Clear
1:53 AM 53.1 °F 42.1 °F 66% 30.11 in 10.0 mi NE 17.3 mph - N/A   Clear
2:53 AM 52.0 °F 42.1 °F 69% 30.12 in 10.0 mi NE 19.6 mph - N/A   Clear
3:27 AM 51.8 °F 42.8 °F 71% 30.15 in 10.0 mi NE 19.6 mph - N/A   Mostly Cloudy
3:53 AM 53.1 °F 43.0 °F 69% 30.12 in 10.0 mi NE 21.9 mph - N/A   Overcast
4:53 AM 52.0 °F 41.0 °F 66% 30.14 in 10.0 mi NE 19.6 mph 27.6 mph N/A   Mostly Cloudy
5:24 AM 51.8 °F 41.0 °F 67% 30.17 in 10.0 mi NE 18.4 mph - N/A   Scattered Clouds
5:53 AM 52.0 °F 39.9 °F 63% 30.15 in 10.0 mi NE 21.9 mph - N/A   Scattered Clouds
6:53 AM 50.0 °F 37.0 °F 61% 30.18 in 10.0 mi ENE 18.4 mph - N/A   Scattered Clouds
7:53 AM 51.1 °F 36.0 °F 56% 30.21 in 10.0 mi ENE 17.3 mph - N/A   Partly Cloudy
8:53 AM 53.1 °F 34.0 °F 48% 30.22 in 10.0 mi ENE 18.4 mph - N/A   Overcast
9:53 AM 54.0 °F 34.0 °F 47% 30.24 in 10.0 mi ENE 19.6 mph - N/A   Overcast
10:53 AM 55.9 °F 37.0 °F 49% 30.23 in 10.0 mi ENE 20.7 mph - N/A   Overcast
11:53 AM 57.0 °F 39.0 °F 51% 30.23 in 6.0 mi ENE 18.4 mph - N/A   Haze
12:53 PM 57.9 °F 41.0 °F 53% 30.23 in 3.0 mi East 11.5 mph - N/A   Haze
1:53 PM 60.1 °F 42.1 °F 51% 30.21 in 10.0 mi ENE 6.9 mph - N/A   Overcast
2:53 PM 62.1 °F 39.9 °F 44% 30.18 in 10.0 mi ESE 10.4 mph - N/A   Overcast
3:53 PM 63.0 °F 39.0 °F 41% 30.16 in 10.0 mi East 10.4 mph - N/A   Overcast
4:53 PM 64.0 °F 39.0 °F 40% 30.14 in 10.0 mi East 6.9 mph - N/A   Overcast
5:30 PM 64.4 °F 41.0 °F 42% 30.14 in 10.0 mi ESE 8.1 mph - N/A   Overcast
5:53 PM 63.0 °F 42.1 °F 46% 30.12 in 10.0 mi ESE 10.4 mph - N/A   Overcast
6:53 PM 62.1 °F 44.1 °F 52% 30.12 in 10.0 mi SE 9.2 mph - N/A   Overcast
7:53 PM 61.0 °F 45.0 °F 56% 30.12 in 10.0 mi SSE 10.4 mph - N/A   Overcast
8:53 PM 61.0 °F 44.1 °F 54% 30.12 in 10.0 mi SSE 6.9 mph - N/A   Overcast
9:53 PM 60.1 °F 45.0 °F 57% 30.12 in 10.0 mi SSE 6.9 mph - N/A   Overcast
10:53 PM 60.1 °F 46.0 °F 60% 30.13 in 10.0 mi South 5.8 mph - N/A   Overcast
11:00 PM 60.8 °F 46.4 °F 59% 30.15 in 10.0 mi South 4.6 mph - N/A   Overcast
11:35 PM 60.8 °F 46.4 °F 59% 30.14 in 10.0 mi South 5.8 mph - N/A   Overcast
11:53 PM 60.1 °F 46.9 °F 62% 30.12 in 10.0 mi South 6.9 mph - N/A   Overcast